Regional Weather Roundup
Issued by NWS

Home | Current Version | Previous Version | Graphics & Text | Print | Product List | Glossary On
Versions: 1 2 3 4 5 6 7 8 9 10 11 12 13 14 15 16 17 18 19 20 21 22 23 24 25 26 27 28 29 30 31 32 33 34 35 36 37 38 39 40 41 42 43 44 45 46 47 48 49 50
000
ASUS43 KOAX 091110
RWRNE

WEATHER ROUNDUP FOR NEBRASKA
NATIONAL WEATHER SERVICE OMAHA NE
500 AM CST TUE FEB 09 2016

NOTES: SATELLITE DATA IS BEING USED TO AUGMENT CLOUD COVER ABOVE
       12000 FEET.
       "FAIR" INDICATES FEW OR NO CLOUDS BELOW 12,000 FEET WITH NO
       SIGNIFICANT WEATHER AND/OR OBSTRUCTIONS TO VISIBILITY.

  * THESE STATIONS DO NOT REPORT WEATHER SUCH AS RAIN...SNOW OR FOG.

NEZ001>004-019>022-054>056-091200-
NEBRASKA PANHANDLE

CITY           SKY/WX    TMP DP  RH WIND       PRES   REMARKS
SCOTTSBLUFF    CLEAR     31  24  75 NW14      30.24R WCI  21
ALLIANCE       CLEAR     28  23  81 W13       30.19R WCI  17
CHADRON        CLEAR     31  25  78 NW10      30.23S WCI  22
KIMBALL        CLEAR     35  25  68 NW20      30.23S WCI  24
SIDNEY         CLEAR     32  25  75 NW17      30.21S WCI  21
$$

NEZ057>060-069>072-079>082-091200-
SOUTHWEST NEBRASKA

CITY           SKY/WX    TMP DP  RH WIND       PRES   REMARKS
NORTH PLATTE   CLOUDY    25  17  72 NW8       30.20R WCI  16
IMPERIAL       CLOUDY    31  24  75 NW10      30.20S WCI  22
LEXINGTON      CLOUDY    26  18  69 NW8       30.19R WCI  18
MCCOOK         MOCLDY    28  19  69 W12       30.21S WCI  18
OGALLALA       CLEAR     21  18  89 CALM      30.22R
$$

NEZ005>010-023>029-035>040-094-091200-
NORTH CENTRAL NEBRASKA

CITY           SKY/WX    TMP DP  RH WIND       PRES   REMARKS
VALENTINE      CLOUDY    27  17  66 N8        30.22S WCI  19
AINSWORTH      CLOUDY    26  18  73 N13       30.21S WCI  15
BROKEN BOW     CLOUDY    28  18  66 N16       30.16R WCI  16
O`NEILL        CLOUDY    21  12  68 N12       30.19R WCI   9
ORD            MOCLDY    23  16  74 N14G24    30.18R WCI  11
THEDFORD       CLOUDY    30  18  61 N12G17    30.19F WCI  21
$$

NEZ041-046>049-061>064-073>077-083>087-091200-
SOUTH CENTRAL NEBRASKA

CITY           SKY/WX    TMP DP  RH WIND       PRES   REMARKS
GRAND ISLAND   CLEAR     20  12  71 N12       30.20R WCI   8
AURORA         CLEAR     20  13  72 NW16      30.18S WCI   6
HASTINGS       PTCLDY    23  16  74 N15       30.19R WCI  10
HEBRON         CLEAR     25  17  70 N13G20    30.19R WCI  14
HOLDREGE       CLOUDY    26  18  72 NW5       30.19R WCI  20
YORK           CLEAR     19  12  73 N10       30.18R WCI   8
$$

NEZ011>018-030>034-042>045-091200-
NORTHEAST NEBRASKA

CITY           SKY/WX    TMP DP  RH WIND       PRES   REMARKS
NORFOLK        PTCLDY    17   7  64 NW18G26   30.17R WCI   1
ALBION         CLOUDY    19  10  66 N16G22    30.17R WCI   5
BLAIR          CLEAR     15   8  74 N16       30.12R WCI  -1
COLUMBUS *     CLEAR     18   3  53 NW18G25   30.17F WCI   2
FREMONT        CLEAR     17   6  63 N17G24    30.15S WCI   1
TEKAMAH        PTCLDY    15   6  67 N17       30.17R WCI  -1
WAYNE          CLEAR     14   6  71 N18G24    30.18R WCI  -3
$$

NEZ050>053-065>068-078-088>093-091200-
SOUTHEAST NEBRASKA

CITY           SKY/WX    TMP DP  RH WIND       PRES   REMARKS
LINCOLN        CLEAR     21  10  62 N17       30.17R WCI   7
OMAHA EPPLEY   PTCLDY    15   8  73 N14       30.15R WCI   0
BEATRICE       CLEAR     22  12  64 N18G25    30.16R WCI   8
FALLS CITY     CLEAR     22  10  60 NW14G24   30.11R WCI   9
NEBRASKA CITY  PTCLDY    20   8  59 N23G30    30.12R WCI   3
PLATTSMOUTH    PTCLDY    17   9  70 N10G22    30.13R WCI   5
$$

NEZ044-045-051>053-067-091200-
OMAHA AREA

CITY           SKY/WX    TMP DP  RH WIND       PRES   REMARKS
OMAHA EPPLEY   PTCLDY    15   8  73 N14       30.15R WCI   0
BLAIR          CLEAR     15   8  74 N16       30.12R WCI  -1
FREMONT        CLEAR     17   6  63 N17G24    30.15S WCI   1
MILLARD        CLEAR     19   8  62 NW10G18   30.15R WCI   7
OFFUTT AFB     CLEAR     16   9  73 N14G25    30.14R WCI   1
PLATTSMOUTH    PTCLDY    17   9  70 N10G22    30.13R WCI   5
WAHOO          FAIR      19   9  67 NW14G24   30.16R WCI   5
$$



USA.gov is the U.S. government's official web portal to all federal, state and local government web resources and services.